| time (UTC) | temp F | wind direction | speed knots | gust knots | rain 1hr in | rain 24hr in | rain mn in | humidity % | barometer mb |
| 20260901092814 | 62 | 225 | 7.0 | 13.0 | 0.00 | 0.00 | 0.00 | 68 | 1016.4 |
| 20260901092313 | 62 | 231 | 6.1 | 17.4 | 0.00 | 0.00 | 0.00 | 70 | 1016.4 |
| 20260901091814 | 62 | 236 | 7.0 | 10.4 | 0.00 | 0.00 | 0.00 | 69 | 1016.5 |
| 20260901091314 | 62 | 234 | 6.1 | 13.0 | 0.00 | 0.00 | 0.00 | 72 | 1016.4 |
| 20260901090314 | 62 | 226 | 5.2 | 8.7 | 0.00 | 0.00 | 0.00 | 74 | 1016.5 |
| 20260901085814 | 61 | 233 | 3.5 | 7.8 | 0.00 | 0.00 | 0.00 | 75 | 1016.5 |
| 20260901085313 | 61 | 218 | 5.2 | 10.4 | 0.00 | 0.00 | 0.00 | 75 | 1016.5 |
| 20260901084815 | 60 | 243 | 4.3 | 8.7 | 0.00 | 0.00 | 0.00 | 78 | 1016.4 |
| 20260901084314 | 60 | 235 | 5.2 | 10.4 | 0.00 | 0.00 | 0.00 | 79 | 1016.3 |
| 20260901083813 | 60 | 243 | 4.3 | 10.4 | 0.00 | 0.00 | 0.00 | 80 | 1016.3 |
| 20260901082813 | 59 | 212 | 4.3 | 7.0 | 0.00 | 0.00 | 0.00 | 81 | 1016.4 |
| 20260901082313 | 59 | 217 | 5.2 | 10.4 | 0.00 | 0.00 | 0.00 | 81 | 1016.5 |
| 20260901081814 | 59 | 241 | 6.1 | 12.2 | 0.00 | 0.00 | 0.00 | 80 | 1016.4 |
| 20260901081313 | 59 | 223 | 5.2 | 11.3 | 0.00 | 0.00 | 0.00 | 80 | 1016.4 |
| 20260901075815 | 59 | 233 | 4.3 | 7.8 | 0.00 | 0.00 | 0.00 | 82 | 1016.3 |
| 20260901075313 | 59 | 235 | 4.3 | 11.3 | 0.00 | 0.00 | 0.00 | 83 | 1016.2 |
| 20260901074813 | 59 | 248 | 4.3 | 7.8 | 0.00 | 0.00 | 0.00 | 84 | 1016.2 |
| 20260901074313 | 58 | 213 | 4.3 | 10.4 | 0.00 | 0.00 | 0.00 | 85 | 1016.2 |
| 20260901073814 | 58 | 253 | 5.2 | 10.4 | 0.00 | 0.00 | 0.00 | 85 | 1016.1 |
| 20260901072813 | 57 | 246 | 2.6 | 7.0 | 0.00 | 0.00 | 0.00 | 87 | 1016.1 |
| 20260901072313 | 57 | 240 | 2.6 | 10.4 | 0.00 | 0.00 | 0.00 | 88 | 1016.2 |
| 20260901071813 | 56 | 265 | 2.6 | 5.2 | 0.00 | 0.00 | 0.00 | 88 | 1016.2 |
| 20260901070815 | 56 | 237 | 1.7 | 4.3 | 0.00 | 0.00 | 0.00 | 89 | 1016.3 |
| 20260901065813 | 55 | 248 | 0.9 | 4.3 | 0.00 | 0.00 | 0.00 | 90 | 1016.2 |
| 20260901065313 | 55 | 243 | 2.6 | 6.1 | 0.00 | 0.00 | 0.00 | 90 | 1016.2 |
| 20260901064814 | 55 | 278 | 1.7 | 6.1 | 0.00 | 0.00 | 0.00 | 90 | 1016.2 |
| 20260901063814 | 55 | 246 | 1.7 | 4.3 | 0.00 | 0.00 | 0.00 | 90 | 1016.2 |
| 20260901063313 | 55 | 233 | 1.7 | 5.2 | 0.00 | 0.00 | 0.00 | 90 | 1016.2 |
| 20260901062813 | 55 | 248 | 5.2 | 7.0 | 0.00 | 0.00 | 0.00 | 91 | 1016.2 |
| 20260901062313 | 54 | 250 | 3.5 | 7.0 | 0.00 | 0.00 | 0.00 | 91 | 1016.2 |
| 20260901061813 | 54 | 244 | 4.3 | 7.0 | 0.00 | 0.00 | 0.00 | 92 | 1016.2 |
| 20260901061313 | 54 | 245 | 1.7 | 5.2 | 0.00 | 0.00 | 0.00 | 92 | 1016.2 |
| 20260901060813 | 54 | 246 | 2.6 | 5.2 | 0.00 | 0.00 | 0.00 | 92 | 1016.1 |
| 20260901055813 | 53 | 241 | 0.9 | 2.6 | 0.00 | 0.00 | 0.00 | 92 | 1016.1 |
| 20260901055313 | 53 | 250 | 2.6 | 5.2 | 0.00 | 0.00 | 0.00 | 92 | 1016.1 |
| 20260901054814 | 53 | 256 | 0.9 | 2.6 | 0.00 | 0.00 | 0.00 | 92 | 1016.1 |
| 20260901054313 | 53 | 253 | 0.9 | 2.6 | 0.00 | 0.00 | 0.00 | 92 | 1016.1 |
| 20260901053313 | 53 | 279 | 1.7 | 2.6 | 0.00 | 0.00 | 0.00 | 93 | 1016.0 |
| 20260901052313 | 52 | 348 | 0.9 | 1.7 | 0.00 | 0.00 | 0.00 | 92 | 1016.0 |
| 20260901051814 | 52 | 348 | 0.9 | 1.7 | 0.00 | 0.00 | 0.00 | 92 | 1016.0 |
| 20260901051313 | 52 | 291 | 0.9 | 2.6 | 0.00 | 0.00 | 0.00 | 91 | 1016.0 |
| 20260901050813 | 52 | 291 | 0.9 | 0.9 | 0.00 | 0.00 | 0.00 | 91 | 1016.0 |
| 20260901045813 | 53 | 291 | 0.9 | 0.9 | 0.00 | 0.00 | 0.00 | 91 | 1016.0 |
| 20260901045313 | 53 | 291 | 0.9 | 1.7 | 0.00 | 0.00 | 0.00 | 91 | 1016.0 |
| 20260901044313 | 53 | 291 | 0.0 | 1.7 | 0.00 | 0.00 | 0.00 | 91 | 1016.0 |
| 20260901043313 | 53 | 291 | 0.9 | 1.7 | 0.00 | 0.00 | 0.00 | 91 | 1016.0 |
| 20260901042813 | 53 | 291 | 0.9 | 2.6 | 0.00 | 0.00 | 0.00 | 90 | 1016.0 |
| 20260901042312 | 53 | 291 | 0.9 | 2.6 | 0.00 | 0.00 | 0.00 | 90 | 1015.9 |
| 20260901041813 | 53 | 291 | 0.9 | 1.7 | 0.00 | 0.00 | 0.00 | 90 | 1015.9 |
| 20260901041312 | 53 | 291 | 0.9 | 1.7 | 0.00 | 0.00 | 0.00 | 90 | 1016.0 |
| 20260901040813 | 53 | 291 | 0.9 | 1.7 | 0.00 | 0.00 | 0.00 | 89 | 1015.9 |
| 20260901040313 | 53 | 291 | 1.7 | 2.6 | 0.00 | 0.00 | 0.00 | 89 | 1015.8 |
| 20260901035815 | 53 | 291 | 0.9 | 1.7 | 0.00 | 0.00 | 0.00 | 89 | 1015.9 |
| 20260901035313 | 54 | 291 | 0.9 | 1.7 | 0.00 | 0.00 | 0.00 | 89 | 1015.8 |
| 20260901034813 | 54 | 291 | 0.0 | 1.7 | 0.00 | 0.00 | 0.00 | 89 | 1015.9 |
| 20260901034313 | 54 | 291 | 0.9 | 1.7 | 0.00 | 0.00 | 0.00 | 89 | 1015.8 |
| 20260901033313 | 54 | 291 | 1.7 | 2.6 | 0.00 | 0.00 | 0.00 | 89 | 1015.9 |
| 20260901032813 | 54 | 259 | 1.7 | 2.6 | 0.00 | 0.00 | 0.00 | 90 | 1016.0 |
| 20260901032312 | 53 | 259 | 1.7 | 4.3 | 0.00 | 0.00 | 0.00 | 90 | 1016.0 |
| 20260901031814 | 53 | 238 | 0.9 | 1.7 | 0.00 | 0.00 | 0.00 | 90 | 1015.9 |
| 20260901031312 | 54 | 214 | 0.0 | 1.7 | 0.00 | 0.00 | 0.00 | 90 | 1015.8 |
| 20260901030813 | 54 | 214 | 0.9 | 2.6 | 0.00 | 0.00 | 0.00 | 90 | 1015.8 |
| 20260901030314 | 54 | 247 | 1.7 | 2.6 | 0.00 | 0.00 | 0.00 | 90 | 1015.8 |
| 20260901025813 | 54 | 243 | 0.9 | 2.6 | 0.00 | 0.00 | 0.00 | 90 | 1015.8 |
| 20260901025313 | 54 | 309 | 0.9 | 2.6 | 0.00 | 0.00 | 0.00 | 90 | 1015.9 |
| 20260901024813 | 54 | 319 | 0.9 | 1.7 | 0.00 | 0.00 | 0.00 | 91 | 1015.9 |
| 20260901024312 | 54 | 319 | 0.9 | 1.7 | 0.00 | 0.00 | 0.00 | 91 | 1015.9 |
| 20260901023813 | 53 | 319 | 0.0 | 1.7 | 0.00 | 0.00 | 0.00 | 92 | 1015.9 |
| 20260901023313 | 53 | 319 | 0.0 | 1.7 | 0.00 | 0.00 | 0.00 | 92 | 1015.9 |
| 20260901022813 | 53 | 319 | 0.0 | 1.7 | 0.00 | 0.00 | 0.00 | 92 | 1016.0 |
| 20260901022313 | 53 | 319 | 0.9 | 1.7 | 0.00 | 0.00 | 0.00 | 92 | 1016.0 |
| 20260901021813 | 52 | 319 | 0.0 | 0.9 | 0.00 | 0.00 | 0.00 | 91 | 1016.1 |
| 20260901021313 | 52 | 319 | 0.9 | 1.7 | 0.00 | 0.00 | 0.00 | 91 | 1016.1 |
| 20260901020814 | 52 | 319 | 0.0 | 1.7 | 0.00 | 0.00 | 0.00 | 91 | 1016.1 |
| 20260901020313 | 52 | 319 | 0.9 | 0.9 | 0.00 | 0.00 | 0.00 | 91 | 1016.2 |
| 20260901015313 | 53 | 319 | 0.9 | 0.9 | 0.00 | 0.00 | 0.00 | 90 | 1016.2 |
| 20260901014813 | 53 | 319 | 0.9 | 0.9 | 0.00 | 0.00 | 0.00 | 90 | 1016.2 |
| 20260901014313 | 53 | 319 | 0.0 | 0.9 | 0.00 | 0.00 | 0.00 | 90 | 1016.2 |
| 20260901013813 | 53 | 319 | 0.0 | 1.7 | 0.00 | 0.00 | 0.00 | 90 | 1016.1 |
| 20260901013312 | 53 | 319 | 0.9 | 0.9 | 0.00 | 0.00 | 0.00 | 90 | 1016.2 |
| 20260901012813 | 53 | 319 | 0.9 | 1.7 | 0.00 | 0.00 | 0.00 | 89 | 1016.1 |
| 20260901012312 | 53 | 319 | 0.9 | 1.7 | 0.00 | 0.00 | 0.00 | 89 | 1016.2 |
| 20260901011312 | 53 | 319 | 0.0 | 1.7 | 0.00 | 0.00 | 0.00 | 89 | 1016.2 |
| 20260901010814 | 53 | 319 | 0.0 | 0.9 | 0.00 | 0.00 | 0.00 | 89 | 1016.1 |
| 20260901010313 | 53 | 319 | 0.0 | 0.0 | 0.00 | 0.00 | 0.00 | 89 | 1016.1 |
| 20260901005813 | 53 | 319 | 0.9 | 1.7 | 0.00 | 0.00 | 0.00 | 88 | 1016.1 |
| 20260901005313 | 54 | 319 | 0.0 | 2.6 | 0.00 | 0.00 | 0.00 | 89 | 1016.0 |
| 20260901004814 | 54 | 340 | 0.9 | 0.9 | 0.00 | 0.00 | 0.00 | 89 | 1016.0 |
| 20260901004313 | 54 | 333 | 0.9 | 2.6 | 0.00 | 0.00 | 0.00 | 88 | 1016.0 |
| 20260901003813 | 54 | 304 | 0.0 | 0.9 | 0.00 | 0.00 | 0.00 | 88 | 1016.0 |
| 20260901003313 | 54 | 304 | 0.9 | 1.7 | 0.00 | 0.00 | 0.00 | 88 | 1015.9 |
| 20260901002813 | 54 | 275 | 0.9 | 0.9 | 0.00 | 0.00 | 0.00 | 88 | 1015.9 |
| 20260901002313 | 54 | 275 | 0.9 | 1.7 | 0.00 | 0.00 | 0.00 | 88 | 1015.9 |
| 20260901001813 | 54 | 275 | 0.9 | 1.7 | 0.00 | 0.00 | 0.00 | 88 | 1015.9 |
| 20260901001312 | 54 | 275 | 0.9 | 0.9 | 0.00 | 0.00 | 0.00 | 88 | 1015.9 |
| 20260901000813 | 54 | 275 | 0.9 | 15.6 | 0.00 | 0.01 | 0.00 | 88 | 1016.0 |
| 20260901000314 | 54 | 275 | 0.9 | 0.9 | 0.00 | 0.01 | 0.00 | 88 | 1016.0 |
| 20260831234312 | 54 | 257 | 0.0 | 1.7 | 0.00 | 0.01 | 0.00 | 88 | 1015.9 |
| 20260831233813 | 54 | 257 | 0.9 | 1.7 | 0.00 | 0.01 | 0.00 | 88 | 1015.9 |
| 20260831233312 | 54 | 257 | 0.0 | 1.7 | 0.00 | 0.01 | 0.00 | 88 | 1015.9 |
| 20260831232812 | 54 | 257 | 0.0 | 1.7 | 0.00 | 0.01 | 0.00 | 88 | 1015.8 |
| 20260831232313 | 54 | 257 | 0.0 | 1.7 | 0.00 | 0.01 | 0.00 | 87 | 1015.8 |
| 20260831231313 | 54 | 257 | 0.9 | 2.6 | 0.00 | 0.02 | 0.00 | 87 | 1015.9 |
| 20260831230902 | 54 | 257 | 0.9 | 2.6 | 0.00 | 0.02 | 0.00 | 87 | 1015.9 |
| 20260831230312 | 55 | 277 | 0.9 | 2.6 | 0.00 | 0.02 | 0.00 | 87 | 1015.8 |
| 20260831225813 | 55 | 279 | 0.0 | 1.7 | 0.00 | 0.02 | 0.02 | 87 | 1015.8 |
| 20260831225313 | 55 | 279 | 0.0 | 1.7 | 0.00 | 0.02 | 0.02 | 86 | 1015.8 |
| 20260831224813 | 55 | 279 | 0.0 | 2.6 | 0.00 | 0.02 | 0.02 | 86 | 1015.9 |
| 20260831224312 | 55 | 262 | 1.7 | 2.6 | 0.00 | 0.02 | 0.02 | 86 | 1015.8 |
| 20260831223813 | 55 | 280 | 1.7 | 5.2 | 0.00 | 0.02 | 0.02 | 86 | 1015.8 |
| 20260831222813 | 55 | 230 | 1.7 | 2.6 | 0.00 | 0.02 | 0.02 | 84 | 1015.7 |
| 20260831222312 | 55 | 230 | 0.0 | 1.7 | 0.00 | 0.02 | 0.02 | 84 | 1015.7 |
| 20260831221814 | 55 | 230 | 0.9 | 2.6 | 0.00 | 0.02 | 0.02 | 84 | 1015.6 |
| 20260831221312 | 55 | 230 | 0.9 | 1.7 | 0.00 | 0.02 | 0.02 | 84 | 1015.5 |
| 20260831220313 | 56 | 258 | 0.9 | 4.3 | 0.00 | 0.02 | 0.02 | 84 | 1015.6 |
| 20260831215813 | 56 | 265 | 0.0 | 1.7 | 0.00 | 0.02 | 0.02 | 83 | 1015.6 |
| 20260831214312 | 56 | 271 | 2.6 | 5.2 | 0.00 | 0.02 | 0.02 | 82 | 1015.5 |
| 20260831213813 | 56 | 250 | 1.7 | 2.6 | 0.00 | 0.02 | 0.02 | 82 | 1015.4 |
| 20260831213312 | 56 | 275 | 0.9 | 2.6 | 0.00 | 0.02 | 0.02 | 82 | 1015.4 |
| 20260831212813 | 56 | 284 | 1.7 | 7.0 | 0.00 | 0.02 | 0.02 | 82 | 1015.4 |
| 20260831212312 | 56 | 257 | 2.6 | 4.3 | 0.00 | 0.02 | 0.02 | 82 | 1015.3 |
| 20260831211813 | 56 | 261 | 2.6 | 4.3 | 0.00 | 0.02 | 0.02 | 82 | 1015.3 |
| 20260831211312 | 56 | 249 | 1.7 | 5.2 | 0.00 | 0.02 | 0.02 | 82 | 1015.3 |
| 20260831210814 | 56 | 270 | 0.9 | 4.3 | 0.00 | 0.02 | 0.02 | 82 | 1015.2 |
| 20260831210312 | 56 | 270 | 3.5 | 7.0 | 0.00 | 0.02 | 0.02 | 81 | 1015.2 |
| 20260831205813 | 56 | 270 | 2.6 | 7.0 | 0.00 | 0.02 | 0.02 | 81 | 1015.1 |
| 20260831205312 | 57 | 248 | 2.6 | 10.4 | 0.00 | 0.02 | 0.02 | 81 | 1015.1 |
| 20260831204812 | 57 | 251 | 2.6 | 7.0 | 0.00 | 0.02 | 0.02 | 81 | 1015.0 |
| 20260831203812 | 57 | 243 | 4.3 | 7.8 | 0.00 | 0.02 | 0.02 | 80 | 1015.0 |
| 20260831203313 | 57 | 244 | 3.5 | 6.1 | 0.00 | 0.02 | 0.02 | 79 | 1015.0 |
| 20260831202812 | 57 | 257 | 3.5 | 7.0 | 0.00 | 0.02 | 0.02 | 79 | 1015.0 |
| 20260831202312 | 57 | 271 | 3.5 | 7.0 | 0.00 | 0.02 | 0.02 | 79 | 1014.9 |
| 20260831201813 | 57 | 261 | 2.6 | 7.0 | 0.00 | 0.02 | 0.02 | 79 | 1014.9 |
| 20260831201312 | 57 | 254 | 4.3 | 8.7 | 0.00 | 0.02 | 0.02 | 79 | 1014.8 |
| 20260831200814 | 57 | 245 | 3.5 | 7.8 | 0.00 | 0.02 | 0.02 | 79 | 1014.7 |
| 20260831200313 | 57 | 255 | 3.5 | 7.0 | 0.00 | 0.02 | 0.02 | 79 | 1014.7 |
| 20260831195312 | 57 | 254 | 5.2 | 10.4 | 0.00 | 0.02 | 0.02 | 78 | 1014.6 |
| 20260831194813 | 57 | 258 | 5.2 | 7.8 | 0.00 | 0.02 | 0.02 | 78 | 1014.5 |
| 20260831194313 | 57 | 243 | 6.1 | 13.0 | 0.00 | 0.02 | 0.02 | 78 | 1014.4 |
| 20260831193812 | 57 | 260 | 5.2 | 7.8 | 0.00 | 0.02 | 0.02 | 78 | 1014.3 |
| 20260831193313 | 57 | 274 | 4.3 | 7.8 | 0.00 | 0.02 | 0.02 | 78 | 1014.3 |
| 20260831192813 | 57 | 264 | 5.2 | 10.4 | 0.00 | 0.02 | 0.02 | 78 | 1014.2 |
| 20260831192312 | 57 | 258 | 4.3 | 8.7 | 0.00 | 0.02 | 0.02 | 78 | 1014.1 |
| 20260831191813 | 57 | 245 | 4.3 | 7.8 | 0.00 | 0.02 | 0.02 | 79 | 1014.0 |
| 20260831191312 | 58 | 252 | 6.1 | 10.4 | 0.00 | 0.02 | 0.02 | 78 | 1014.0 |
| 20260831190314 | 58 | 250 | 5.2 | 10.4 | 0.00 | 0.02 | 0.02 | 79 | 1013.9 |
| 20260831185812 | 58 | 253 | 4.3 | 7.8 | 0.00 | 0.02 | 0.02 | 79 | 1013.8 |
| 20260831185312 | 58 | 251 | 5.2 | 10.4 | 0.00 | 0.02 | 0.02 | 79 | 1013.7 |
| 20260831184812 | 58 | 253 | 4.3 | 10.4 | 0.00 | 0.02 | 0.02 | 78 | 1013.7 |
| 20260831183813 | 58 | 247 | 6.1 | 10.4 | 0.00 | 0.03 | 0.02 | 78 | 1013.6 |
| 20260831183312 | 58 | 250 | 6.1 | 10.4 | 0.00 | 0.06 | 0.02 | 77 | 1013.6 |
| 20260831182813 | 58 | 243 | 6.1 | 14.8 | 0.00 | 0.07 | 0.02 | 77 | 1013.5 |
| 20260831182312 | 58 | 257 | 5.2 | 10.4 | 0.00 | 0.08 | 0.02 | 77 | 1013.4 |
| 20260831181812 | 58 | 243 | 4.3 | 7.0 | 0.00 | 0.09 | 0.02 | 77 | 1013.4 |
| 20260831181313 | 58 | 259 | 5.2 | 10.4 | 0.00 | 0.10 | 0.02 | 76 | 1013.3 |
| 20260831180812 | 59 | 253 | 6.1 | 10.4 | 0.00 | 0.13 | 0.02 | 76 | 1013.2 |
| 20260831175812 | 59 | 253 | 5.2 | 13.9 | 0.00 | 0.20 | 0.02 | 76 | 1013.1 |
| 20260831175312 | 59 | 256 | 4.3 | 11.3 | 0.00 | 0.20 | 0.02 | 76 | 1013.0 |
| 20260831174813 | 59 | 247 | 6.1 | 10.4 | 0.00 | 0.20 | 0.02 | 75 | 1012.9 |
| 20260831173812 | 59 | 251 | 4.3 | 10.4 | 0.00 | 0.24 | 0.02 | 75 | 1012.8 |
| 20260831173312 | 59 | 254 | 7.8 | 15.6 | 0.00 | 0.24 | 0.02 | 75 | 1012.6 |
| 20260831172812 | 59 | 256 | 5.2 | 10.4 | 0.00 | 0.24 | 0.02 | 76 | 1012.6 |
| 20260831172313 | 59 | 253 | 4.3 | 13.0 | 0.00 | 0.24 | 0.02 | 76 | 1012.5 |
| 20260831171812 | 59 | 250 | 7.8 | 13.9 | 0.00 | 0.24 | 0.02 | 75 | 1012.5 |
| 20260831171313 | 60 | 252 | 5.2 | 11.3 | 0.00 | 0.24 | 0.02 | 76 | 1012.5 |
| 20260831170813 | 60 | 259 | 7.0 | 13.0 | 0.00 | 0.24 | 0.02 | 76 | 1012.5 |
| 20260831170313 | 60 | 254 | 4.3 | 7.8 | 0.00 | 0.24 | 0.02 | 76 | 1012.4 |
| 20260831165812 | 60 | 265 | 6.1 | 12.2 | 0.00 | 0.24 | 0.02 | 75 | 1012.4 |
| 20260831165312 | 60 | 251 | 6.1 | 13.9 | 0.00 | 0.24 | 0.02 | 76 | 1012.3 |
| 20260831164812 | 61 | 257 | 5.2 | 10.4 | 0.00 | 0.24 | 0.02 | 75 | 1012.3 |
| 20260831164312 | 61 | 250 | 6.1 | 12.2 | 0.00 | 0.24 | 0.02 | 76 | 1012.3 |
| 20260831163812 | 61 | 241 | 5.2 | 12.2 | 0.00 | 0.24 | 0.02 | 78 | 1012.2 |
| 20260831162812 | 61 | 254 | 5.2 | 8.7 | 0.00 | 0.24 | 0.02 | 79 | 1012.2 |
| 20260831161812 | 62 | 247 | 5.2 | 10.4 | 0.00 | 0.24 | 0.02 | 78 | 1012.2 |
| 20260831161312 | 62 | 244 | 5.2 | 10.4 | 0.00 | 0.24 | 0.02 | 78 | 1012.2 |
| 20260831160313 | 62 | 246 | 5.2 | 10.4 | 0.00 | 0.24 | 0.02 | 74 | 1012.1 |
| 20260831155813 | 63 | 249 | 4.3 | 12.2 | 0.00 | 0.24 | 0.02 | 73 | 1012.1 |
| 20260831155312 | 63 | 257 | 5.2 | 11.3 | 0.00 | 0.24 | 0.02 | 72 | 1011.9 |
| 20260831154813 | 64 | 249 | 5.2 | 11.3 | 0.00 | 0.24 | 0.02 | 70 | 1011.8 |
| 20260831154312 | 65 | 246 | 5.2 | 10.4 | 0.00 | 0.24 | 0.02 | 70 | 1011.7 |
| 20260831153812 | 64 | 254 | 4.3 | 12.2 | 0.00 | 0.24 | 0.02 | 71 | 1011.7 |
| 20260831153312 | 64 | 242 | 6.1 | 13.9 | 0.00 | 0.24 | 0.02 | 71 | 1011.6 |
| 20260831152812 | 64 | 241 | 5.2 | 11.3 | 0.00 | 0.24 | 0.02 | 73 | 1011.5 |
| 20260831152313 | 64 | 243 | 5.2 | 13.9 | 0.00 | 0.24 | 0.02 | 74 | 1011.4 |
| 20260831151812 | 64 | 251 | 5.2 | 13.9 | 0.00 | 0.24 | 0.02 | 73 | 1011.3 |
| 20260831151312 | 63 | 259 | 4.3 | 12.2 | 0.00 | 0.24 | 0.02 | 75 | 1011.1 |
| 20260831150812 | 64 | 255 | 4.3 | 11.3 | 0.00 | 0.24 | 0.02 | 74 | 1011.2 |
| 20260831150312 | 65 | 250 | 6.1 | 12.2 | 0.00 | 0.24 | 0.02 | 73 | 1011.1 |
| 20260831145812 | 64 | 275 | 7.0 | 15.6 | 0.00 | 0.24 | 0.02 | 72 | 1011.1 |
| 20260831145312 | 64 | 281 | 4.3 | 13.0 | 0.00 | 0.24 | 0.02 | 74 | 1010.9 |
| 20260831143812 | 65 | 239 | 6.1 | 15.6 | 0.00 | 0.24 | 0.02 | 73 | 1010.8 |
| 20260831143314 | 65 | 248 | 6.1 | 12.2 | 0.00 | 0.25 | 0.02 | 73 | 1010.7 |
| 20260831142812 | 65 | 246 | 6.1 | 12.2 | 0.00 | 0.26 | 0.02 | 74 | 1010.7 |
| 20260831142313 | 65 | 259 | 5.2 | 11.3 | 0.00 | 0.26 | 0.02 | 73 | 1010.6 |
| 20260831141812 | 66 | 268 | 5.2 | 12.2 | 0.00 | 0.26 | 0.02 | 71 | 1010.5 |
| 20260831141312 | 66 | 243 | 7.0 | 12.2 | 0.00 | 0.26 | 0.02 | 71 | 1010.4 |
| 20260831140813 | 66 | 267 | 7.8 | 13.0 | 0.00 | 0.26 | 0.02 | 70 | 1010.3 |
| 20260831135812 | 66 | 258 | 5.2 | 10.4 | 0.00 | 0.26 | 0.02 | 72 | 1010.3 |
| 20260831135311 | 66 | 272 | 6.1 | 11.3 | 0.00 | 0.26 | 0.02 | 72 | 1010.3 |
| 20260831134312 | 66 | 251 | 5.2 | 12.2 | 0.00 | 0.26 | 0.02 | 73 | 1010.1 |
| 20260831133812 | 66 | 248 | 6.1 | 15.6 | 0.00 | 0.26 | 0.02 | 71 | 1010.0 |
| 20260831133312 | 66 | 253 | 5.2 | 11.3 | 0.00 | 0.26 | 0.02 | 73 | 1009.8 |
| 20260831132813 | 65 | 274 | 6.1 | 11.3 | 0.00 | 0.26 | 0.02 | 73 | 1009.7 |
| 20260831131813 | 65 | 257 | 5.2 | 13.9 | 0.00 | 0.26 | 0.02 | 74 | 1009.6 |
| 20260831131312 | 65 | 265 | 4.3 | 8.7 | 0.00 | 0.26 | 0.02 | 74 | 1009.7 |
| 20260831130812 | 65 | 251 | 5.2 | 10.4 | 0.00 | 0.26 | 0.02 | 75 | 1009.6 |
| 20260831130311 | 65 | 263 | 3.5 | 7.0 | 0.00 | 0.26 | 0.02 | 76 | 1009.5 |
| 20260831125813 | 65 | 252 | 2.6 | 8.7 | 0.00 | 0.26 | 0.02 | 74 | 1009.5 |
| 20260831125312 | 66 | 243 | 5.2 | 10.4 | 0.00 | 0.26 | 0.02 | 75 | 1009.4 |
| 20260831124813 | 65 | 253 | 5.2 | 12.2 | 0.00 | 0.26 | 0.02 | 77 | 1009.3 |
| 20260831124312 | 66 | 248 | 7.0 | 11.3 | 0.00 | 0.26 | 0.02 | 74 | 1009.2 |
| 20260831123312 | 66 | 247 | 5.2 | 12.2 | 0.00 | 0.26 | 0.02 | 75 | 1009.0 |
| 20260831122312 | 66 | 248 | 5.2 | 10.4 | 0.00 | 0.26 | 0.02 | 75 | 1008.8 |
| 20260831121811 | 66 | 253 | 6.1 | 14.8 | 0.00 | 0.26 | 0.02 | 75 | 1008.8 |
| 20260831121313 | 66 | 249 | 5.2 | 10.4 | 0.00 | 0.26 | 0.02 | 76 | 1008.7 |
| 20260831120812 | 66 | 252 | 6.1 | 13.9 | 0.00 | 0.26 | 0.02 | 76 | 1008.6 |
| 20260831120312 | 65 | 239 | 4.3 | 11.3 | 0.00 | 0.26 | 0.02 | 78 | 1008.6 |
| 20260831115312 | 65 | 285 | 3.5 | 13.0 | 0.00 | 0.26 | 0.02 | 79 | 1008.4 |
| 20260831114812 | 65 | 247 | 5.2 | 10.4 | 0.00 | 0.26 | 0.02 | 77 | 1008.3 |
| 20260831114312 | 66 | 254 | 5.2 | 11.3 | 0.00 | 0.26 | 0.02 | 77 | 1008.2 |
| 20260831113813 | 67 | 241 | 5.2 | 10.4 | 0.00 | 0.26 | 0.02 | 77 | 1008.0 |
| 20260831113312 | 65 | 246 | 4.3 | 10.4 | 0.00 | 0.26 | 0.02 | 81 | 1007.9 |
| 20260831112812 | 64 | 241 | 5.2 | 10.4 | 0.00 | 0.26 | 0.02 | 82 | 1008.0 |
| 20260831112311 | 65 | 250 | 5.2 | 10.4 | 0.00 | 0.26 | 0.02 | 79 | 1007.9 |
| 20260831111812 | 66 | 259 | 4.3 | 10.4 | 0.00 | 0.26 | 0.02 | 77 | 1007.7 |
| 20260831110812 | 66 | 248 | 5.2 | 10.4 | 0.00 | 0.26 | 0.02 | 77 | 1007.5 |
| 20260831105812 | 65 | 251 | 1.7 | 6.1 | 0.00 | 0.26 | 0.02 | 83 | 1007.4 |
| 20260831105311 | 64 | 281 | 2.6 | 7.8 | 0.00 | 0.26 | 0.02 | 80 | 1007.4 |
| 20260831104813 | 64 | 273 | 1.7 | 5.2 | 0.00 | 0.26 | 0.02 | 83 | 1007.2 |
| 20260831104312 | 64 | 272 | 1.7 | 6.1 | 0.00 | 0.26 | 0.02 | 83 | 1007.2 |
| 20260831103812 | 64 | 240 | 1.7 | 4.3 | 0.00 | 0.26 | 0.02 | 84 | 1007.2 |
| 20260831103313 | 64 | 276 | 0.9 | 4.3 | 0.00 | 0.26 | 0.02 | 85 | 1007.1 |
| 20260831102812 | 63 | 322 | 0.9 | 2.6 | 0.00 | 0.26 | 0.02 | 85 | 1007.1 |
| 20260831102313 | 63 | 306 | 0.9 | 2.6 | 0.00 | 0.26 | 0.02 | 84 | 1007.1 |
| 20260831101812 | 63 | 283 | 1.7 | 6.1 | 0.00 | 0.26 | 0.02 | 83 | 1007.0 |
| 20260831101312 | 63 | 280 | 2.6 | 5.2 | 0.00 | 0.26 | 0.02 | 84 | 1007.0 |
| 20260831100812 | 63 | 248 | 2.6 | 7.0 | 0.00 | 0.26 | 0.02 | 84 | 1007.0 |
| 20260831095812 | 64 | 254 | 2.6 | 8.7 | 0.00 | 0.26 | 0.02 | 83 | 1006.9 |
| 20260831095312 | 64 | 298 | 1.7 | 10.4 | 0.00 | 0.26 | 0.02 | 84 | 1006.9 |
| 20260831094312 | 64 | 321 | 1.7 | 4.3 | 0.00 | 0.26 | 0.02 | 84 | 1006.7 |
| 20260831093812 | 64 | 279 | 0.9 | 2.6 | 0.00 | 0.26 | 0.02 | 85 | 1006.7 |
| 20260831093312 | 63 | 315 | 0.9 | 2.6 | 0.00 | 0.26 | 0.02 | 86 | 1006.6 |